Regional Weather Roundup
Issued by NWS

Home | Current Version | Previous Version | Text Only | Print | Product List | Glossary Off
Versions: 1 2 3 4 5 6 7 8 9 10 11 12 13 14 15 16 17 18 19 20 21 22 23 24 25 26 27 28 29 30 31 32 33 34 35 36 37 38 39 40 41 42 43 44 45 46 47 48 49 50

419
ASUS43 KIND 291609
RWRIN

WEATHER ROUNDUP FOR INDIANA
NATIONAL WEATHER SERVICE INDIANAPOLIS IN
1200 PM EDT SUN MAY 29 2016

NOTE: "FAIR" INDICATES FEW OR NO CLOUDS BELOW 12,000 FEET WITH NO
SIGNIFICANT WEATHER AND/OR OBSTRUCTIONS TO VISIBILITY.

* - STATION DOES NOT REPORT WEATHER SUCH AS PRECIPITATION OR FOG.

+ - STATION NOT QUALITY CONTROLLED BY THE NATIONAL WEATHER SERVICE.
    USE DATA WITH CAUTION...ESPECIALLY DEWPOINT AND RELATIVE
    HUMIDITY OBSERVATIONS.

INZ001>003-010>013-019-020-291700-
NORTHWEST INDIANA

CITY           SKY/WX    TMP DP  RH WIND       PRES   REMARKS
GARY /AIRPORT/ MOSUNNY   81  66  61 SW24      30.02
KNOX *+          N/A     79  43  27 SW13G21     N/A
LA PORTE +     SUNNY     81  59  47 SW15G22   30.04S
MICHIGAN CITY+ MOSUNNY   79  59  50 SW14G22   30.03S
MONTICELLO +   MOSUNNY   82  53  36 SW13G18   30.05S
RENSSELAER +   SUNNY     79  55  44 SW16G25   30.05S
VALPARAISO     SUNNY     79  60  52 SW15G21   30.04S

$$

LMZ046-743>745-291700-
SOUTHERN LAKE MICHIGAN

STATION/POSITION TIME  TEMP    WIND        PRES    WAVE
                       AIR SEA DIR/SP/G            HT
                 (UTC) (F)     (DEG/KT/KT) (MB)    (FT)
BURNS HARBOR     1500   75     230/ 14/ 21 1016.9R
MICHIGAN CITY    1500   73     200/ 12/ 15   N/A
5NW MICH CITY    1600   66 58  230/  8/ 12   N/A     1

$$

INZ004-005-014>016-021>024-291700-
NORTH CENTRAL INDIANA

CITY           SKY/WX    TMP DP  RH WIND       PRES   REMARKS
ELKHART          N/A     81  66  61 MISG      30.05S
GOSHEN         PTSUNNY   79  63  57 SW14      30.04S
LOGANSPORT +   MOSUNNY   81  59  47 W17       30.07S
PERU/GRISSOM   MOSUNNY   80  64  58 W10       30.05F
ROCHESTER +    MOSUNNY   81  64  57 S10G18    30.05F
SOUTH BEND     SUNNY     80  58  46 SW16G22   30.04S
WARSAW +       PTSUNNY   79  63  57 SW8       30.05F

$$

INZ006>009-017-018-025>027-291700-
NORTHEAST INDIANA

CITY           SKY/WX    TMP DP  RH WIND       PRES   REMARKS
ANGOLA *+        N/A     82  77  83 SW8       30.04F
AUBURN +       MOSUNNY   81  64  57 SW7       30.06S
FORT WAYNE     PTSUNNY   83  65  54 SW14      30.06S
HUNTINGTON +   SUNNY    N/A N/A N/A SW9G16    30.05F

$$

INZ028-029-035-036-043>045-051>053-291700-
WEST CENTRAL INDIANA

CITY           SKY/WX    TMP DP  RH WIND       PRES   REMARKS
CRAWFORDSVL +  SUNNY     79  62  55 W12       30.08F
GREENCASTLE +  SUNNY     79  70  73 W3        30.09F
LAFAYETTE      SUNNY     79  60  52 VRB7G18   30.06S
TERRE HAUTE    MOSUNNY   81  63  54 VRB5      30.09S

$$

INZ030>032-037>040-046>048-054>057-064-065-291700-
CENTRAL INDIANA

CITY           SKY/WX    TMP DP  RH WIND       PRES   REMARKS
CP ATTERBURY + MOSUNNY   81  68  65 W6        30.09F
COLUMBUS       MOSUNNY   81  68  65 SW12G18   30.09F
FISHERS *+     MOSUNNY   81  70  69 SW6       30.08F
FRANKFORT +      N/A     82  47  28 W14       30.09S
GREENWOOD *+   MOSUNNY   79  66  65 SW6       30.09F
INDIANAPOLIS   MOSUNNY   79  68  69 SW7       30.07F
-EAGLE CREEK   SUNNY     81  66  60 W6        30.07F
KOKOMO *+      PTSUNNY   82  64  54 SW14      30.06F
MARION +       MOSUNNY   81  65  57 SW12      30.07F
SHELBYVILLE    MOSUNNY   83  65  54 W12       30.08F
ZIONSVILLE +   MOSUNNY   79  67  68 SW8       30.09F

$$

INZ033-034-041-042-049-050-058-059-291700-
EAST CENTRAL INDIANA

CITY           SKY/WX    TMP DP  RH WIND       PRES   REMARKS
MUNCIE         SUNNY     82  65  56 SW10      30.08S

$$

INZ060-061-067>069-081>083-085>088-291700-
SOUTHWEST INDIANA

CITY           SKY/WX    TMP DP  RH WIND       PRES   REMARKS
EVANSVILLE     PTSUNNY   81  68  64 SW5       30.10S
HUNTINGBURG *+ PTSUNNY   81  68  65 SW8       30.10S
WASHINGTON +   PTSUNNY   80  71  71 W6        30.08S

$$

INZ062-063-066-070>080-084-089>092-291700-
SOUTH CENTRAL AND SOUTHEAST INDIANA

CITY           SKY/WX    TMP DP  RH WIND       PRES   REMARKS
BEDFORD +      PTSUNNY   81  75  83 W8        30.08F
BLOOMINGTON    MOSUNNY   78  65  63 W5        30.09F
MADISON *+     PTSUNNY   81  64  57 CALM      30.13S
NORTH VERNON + MOSUNNY   82  73  74 CALM      30.11S
SEYMOUR +      MOSUNNY   82  66  57 MISG      30.09F

$$





USA.gov is the U.S. government's official web portal to all federal, state and local government web resources and services.